sat.trackr.live / text

‹ back to catalog

ONEWEB-0226

NORAD 48793 · 2021-045AC

PAYLOAD ACTIVE UNKNOWN

§ Identity

Operator
Country
UK
Launch date
2021-05-28
Launch site
VOSTO
Launch vehicle
Mass (kg)
RCS (m²)

Purposes: comms

External: N2YO · Heavens-Above · Gunter

§ Orbital elements

Epoch: 2026-09-20T04:45:38.088000Z

Period
109.46 min
Inclination
87.8985°
Eccentricity
0.0001888
Mean motion
13.15566238 rev/d
Perigee alt
1,200.3 km
Apogee alt
1,203.1 km
Semi-major
7,579.8 km
B*
4.3709e-3
RAAN
240.2533°
Arg perigee
73.2862°
Mean anomaly
286.8475°
Rev number
25,684

§ Raw data

ONEWEB-02261 48793U 21045AC  26263.19835750  .00001659  00000+0  43709-2 0  99952 48793  87.8985 240.2533 0001888  73.2862 286.8475 13.15566238256845

JSON: /api/v1/satellites/48793 · /tle

For live sub-satellite position, see the globe view (requires WebGL).

§ Visibility from observer

Set your observer location to see the next 7 days of passes ≥ 10°. The values pass through the URL so the page stays shareable.

No JS? Fill the form by hand. The geolocation button needs JavaScript.